Date,TemperatureHighF,TemperatureAvgF,TemperatureLowF,DewpointHighF,DewpointAvgF,DewpointLowF,HumidityHigh,HumidityAvg,HumidityLow,PressureMaxIn,PressureMinIn,WindSpeedMaxMPH,WindSpeedAvgMPH,GustSpeedMaxMPH,PrecipitationSumIn
2013-1-1,40.0,35.0,25.0,29.0,22.8,10.0,74,61,50,29.62,29.53,5,3,12,0.00
2013-1-2,38.0,26.7,19.0,15.0,11.6,8.0,67,53,36,29.74,29.62,5,3,11,0.00
2013-1-3,44.0,29.1,23.0,18.0,15.3,13.0,69,57,32,29.74,29.68,4,2,8,0.00
2013-1-4,42.0,33.2,28.0,23.0,20.2,18.0,69,59,42,29.68,29.59,5,3,11,0.00
2013-1-5,53.0,35.3,27.0,25.0,20.6,17.0,87,57,31,29.80,29.62,6,2,13,0.00
2013-1-6,53.0,38.7,30.0,34.0,28.2,23.0,97,68,42,29.77,29.62,4,2,9,0.00
2013-1-7,57.0,39.3,25.0,30.0,25.4,21.0,89,60,28,29.88,29.65,4,2,9,0.00
2013-1-8,55.0,38.5,25.0,33.0,29.1,22.0,99,72,41,29.91,29.85,4,1,8,0.00
2013-1-9,55.0,40.1,27.0,41.0,33.5,27.0,99,79,49,29.88,29.71,5,1,12,0.00
2013-1-10,58.0,43.0,34.0,33.0,24.8,22.0,68,50,26,29.97,29.77,5,2,11,0.00
2013-1-11,46.0,39.1,29.0,43.0,32.8,23.0,99,79,60,29.97,29.68,2,1,5,0.00
2013-1-12,47.0,42.9,40.0,46.0,42.4,40.0,99,98,89,29.74,29.67,2,1,6,0.00
2013-1-13,49.0,44.1,40.0,46.0,43.5,40.0,99,97,86,29.74,29.65,3,1,7,0.00
2013-1-14,59.0,48.3,37.0,56.0,43.1,32.0,99,83,58,29.80,29.59,3,1,8,0.00
2013-1-15,39.0,35.8,33.0,34.0,28.6,24.0,98,76,60,29.84,29.77,2,1,7,0.00
2013-1-16,35.0,33.0,30.0,35.0,32.7,30.0,99,98,87,29.77,29.50,3,1,7,0.00
2013-1-17,49.0,38.8,33.0,34.0,27.9,23.0,95,66,42,29.68,29.56,4,2,10,0.00
2013-1-18,40.0,29.5,24.0,23.0,11.0,3.0,66,47,25,29.94,29.62,4,2,12,0.00
2013-1-19,56.0,39.5,27.0,35.0,23.5,12.0,75,53,33,29.88,29.59,5,3,12,0.00
2013-1-20,59.0,42.9,28.0,31.0,22.8,9.0,74,48,19,29.65,29.44,8,4,15,0.00
2013-1-21,36.0,28.0,21.0,20.0,12.1,6.0,73,51,40,29.68,29.53,4,2,9,0.00
2013-1-22,28.0,20.0,11.0,16.0,0.7,-10.0,65,43,24,29.74,29.50,6,4,13,0.00
2013-1-23,25.0,14.2,9.0,-1.0,-4.8,-10.0,57,42,27,29.77,29.74,5,3,10,0.00
2013-1-24,31.0,17.5,9.0,3.0,-0.9,-4.0,68,46,25,29.88,29.71,6,3,13,0.00
2013-1-25,31.0,17.9,11.0,17.0,5.4,-3.0,96,61,31,29.88,29.68,4,2,10,0.00
2013-1-26,41.0,22.3,11.0,16.0,9.3,3.0,91,61,33,29.85,29.65,4,2,9,0.00
2013-1-27,45.0,26.7,15.0,14.0,10.0,6.0,76,52,25,29.94,29.85,4,2,8,0.00
2013-1-28,34.0,28.5,20.0,34.0,25.0,12.0,99,87,63,29.94,29.62,4,1,8,0.00
2013-1-29,65.0,42.1,34.0,42.0,37.6,34.0,99,86,40,29.71,29.62,3,1,7,0.00
2013-1-30,56.0,46.9,38.0,51.0,46.5,38.0,99,98,81,29.68,29.26,6,2,15,0.00
2013-1-31,51.0,40.3,27.0,51.0,20.6,7.0,99,47,31,29.47,29.15,9,6,18,0.00